Regional Weather Roundup
Issued by NWS

Home | Current Version | Previous Version | Text Only | Print | Product List | Glossary On
Versions: 1 2 3 4 5 6 7 8 9 10 11 12 13 14 15 16 17 18 19 20 21 22 23 24 25 26 27 28 29 30 31 32 33 34 35 36 37 38 39 40 41 42 43 44 45 46 47 48 49 50
000
ASUS44 KLUB 041201
RWRTX
WEST TEXAS WEATHER ROUNDUP
NATIONAL WEATHER SERVICE LUBBOCK TX
600 AM CST WED MAR 04 2015

NOTE: "FAIR" INDICATES FEW OR NO CLOUDS BELOW 12,000 FEET WITH NO
SIGNIFICANT WEATHER AND/OR OBSTRUCTIONS TO VISIBILITY.

TXZ004-006>008-010-012-014-016-OKZ002-041300-
TEXAS PANHANDLE/OKLAHOMA PANHANDLE

CITY           SKY/WX    TMP DP  RH WIND       PRES   REMARKS
AMARILLO       CLOUDY    27  25  92 NE16      29.98R FOG     WCI  15
BORGER         FRZ RAIN  26  24  92 NE14      30.04R FOG     WCI  14
CANADIAN       CLOUDY    28  25  91 NE13G23   30.05R FOG     WCI  17
DALHART        CLOUDY    26  23  88 NE20      29.98R FOG     WCI  12
DUMAS          CLOUDY    24  23  94 NE12G20   30.00R FOG     WCI  13
GUYMON         CLOUDY    23  19  85 NE17      30.06R WCI   9
$$

TXZ026-029-035-045-048-041300-
SOUTHERN PANHANDLE/SOUTH PLAINS/ROLLING PLAINS

CITY           SKY/WX    TMP DP  RH WIND       PRES   REMARKS
CHILDRESS      CLOUDY    37  27  67 NE16G24   29.96R WCI  28
SEMINOLE       DRIZZLE   48  46  93 S3        29.83S
LUBBOCK        FOG       43  42  97 NE15      29.86R VSB 1/2
$$

TXZ052-054-060>062-072-078-127-140-154-169-041300-
PERMIAN BASIN/CONCHO VALLEY/BIG COUNTRY/EDWARDS PLATEAU

CITY           SKY/WX    TMP DP  RH WIND       PRES   REMARKS
ABILENE        LGT RAIN  51  50  96 N12       29.86R FOG
BIG SPRING     CLOUDY    48  45  89 CALM      29.84F
BRADY          MOCLDY    52  52 100 E3        29.82S
JUNCTION       CLOUDY    53  52  96 CALM      29.80S FOG
MIDLAND        CLOUDY    45  44  97 CALM      29.84R FOG
ODESSA         CLOUDY    47  43  86 CALM      29.83R
SAN ANGELO     CLOUDY    52  50  93 SW7       29.81R
WINK           CLOUDY    48  43  82 S5        29.82R
$$

TXZ055-058-074-075-080-082-041300-
FAR WEST/SOUTHWEST MOUNTAINS/TRANS PECOS

CITY           SKY/WX    TMP DP  RH WIND       PRES   REMARKS
ALPINE         CLOUDY    43  41  94 SW5       29.93R
DRYDEN           N/A     52  51  97 E6        29.80F
EL PASO        MOCLDY    51  34  52 SW10      29.84S
FORT STOCKTON  CLOUDY    48  45  89 SW7       29.84R
MARFA          CLOUDY    45  41  87 N7        29.90R
PECOS          CLOUDY    45  43  94 CALM      29.84R
$$

TXZ014-016-019-021>030-083-041300
TEXAS TECH WEST TEXAS MESONET/TEXAS PANHANDLE/NORTHERN SOUTH PLAINS

CITY           SKY/WX    TMP DP  RH WIND       PRES   REMARKS
ABERNATHY 5ENE   N/A     38  37  98 NE15      29.89R WCI  29
AMARILLO 9NNE    N/A     27  26  94 N13       29.99R WCI  16
AMARILLO 7SSE    N/A     27  26  94 NE16      29.98R WCI  15
AMHERST 1NE      N/A     41  41  98 NE17      29.86R
BOOTLEG 11WNW    N/A     29  28  96 N13       29.93R WCI  19
CANADIAN 6E      N/A     25  22  89 N20       30.04R WCI  11
CAPROCK CYN SP   N/A     36  32  86 N15       29.94S WCI  26
CLARENDON 2WSW   N/A     29  26  90 N18       29.96S WCI  16
CLAUDE 12SW      N/A     28  26  96 N14       29.96R WCI  16
DIMMITT 2NE      N/A     32  32  99 N16       29.92R WCI  21
FLOYDADA 2NNE    N/A     35  35  99 NE17      29.89R WCI  24
FRIONA 2NE       N/A     31  30  99 NE15      29.93R WCI  20
GOODLETT 3W      N/A     37  27  68 N17       29.95R WCI  27
HART 3N          N/A     35  34  99 NE16      29.90R WCI  24
HEREFORD 2NW     N/A     29  28  99 NE16      29.93R WCI  17
MCLEAN 1E        N/A     27  24  91 N16       29.97R WCI  14
MEMPHIS 1NE      N/A     33  28  80 N17       29.98R WCI  23
MULESHOE 2SSW    N/A     37  37  98 N15       29.89R WCI  28
OLTON 6S         N/A     38  37  95 NE16      29.88R WCI  29
PALO DURO SP     N/A     28  26  91 N13       29.98R WCI  18
PAMPA 2E         N/A     24  23  96 N20       29.99R WCI  10
PLAINVIEW 1S     N/A     36  35  99 NE14      29.88S WCI  27
SILVERTON 7ESE   N/A     34  32  90 NE16      29.92S WCI  24
TULIA 2ENE       N/A     34  33  97 NE14      29.93R WCI  24
TURKEY 2WSW      N/A     37  32  82 NE18      29.94S WCI  27
UMBARGER 3NNE    N/A     28  26  95 NE17      29.95R WCI  15
$$

TXZ033>036-039>041-045>048-041300
TEXAS TECH WEST TEXAS MESONET/SOUTH PLAINS

CITY           SKY/WX    TMP DP  RH WIND       PRES   REMARKS
AIKEN 3WSW       N/A     35  35  97 NE17      29.91R WCI  25
ANDREWS 2NE      N/A     48  44  87 SW2       29.82S
ANTON 6SSW       N/A     46  44  93 NW8       29.85R
BROWNFIELD 2S    N/A     47  44  91 W3        29.84R
DENVR CTY 7WNW   N/A     47  44  87 W6        29.82S
GAIL 2ESE        N/A     48  47  94 SE3       29.83R
LAMESA 2SE       N/A     45  44  97 S3        29.82F
LEVELLAND 4S     N/A     47  42  84 W6        29.81F
LUBBOCK 3WNW     N/A     46  44  96 NE10      29.85R
MORTON 1ENE      N/A     44  41  89 N7        29.83F
ODONNELL 1N      N/A     47  45  93 NE1       29.83R
PLAINS 3N        N/A     47  45  90 SW6       29.82S
RALLS 1SE        N/A     40  39  99 NE10      29.86R WCI  33
REESE CENTER     N/A     50  44  80 NW9       29.83R
SEAGRAVES 1SW    N/A     48  46  91 N1        29.82S
SEMINOLE 2NNE    N/A     48  45  87 S3        29.82R
SLATON 2NE       N/A     45  44  95 NE5       29.84R
SNYDER 3E        N/A     50  49  94 NE8       29.86R
SUNDOWN 8SW      N/A     47  43  85 W7        29.81F
TAHOKA 3NNE      N/A     48  46  90 SE3       29.83R
WOLFFORTH 6SSW   N/A     48  48  99 SW7       29.83R
$$

TXZ031-032-036>038-042>044-041300-
TEXAS TECH WEST TEXAS MESONET/ROLLING PLAINS

CITY           SKY/WX    TMP DP  RH WIND       PRES   REMARKS
ASPERMONT 3NE    N/A     48  48  99 NE14      29.85F
FLUVANNA 3WNW    N/A     49  47  90 NE14      29.85R
GRAHAM 5SSW      N/A     50  47  90 NE14      29.84R
GUTHRIE 10WSW    N/A     40  37  87 N15       29.90F WCI  32
HASKELL 1NW      N/A     44  43  97 NE17      29.86S
JAYTON 1SSE      N/A     42  41  95 N18       29.88R
KNOX CITY 3NW    N/A     42  39  90 N9        29.90R
LK A HENRY 1NW   N/A     48  47  95 NE15      29.86R
NORTHFIELD 1S    N/A     38  32  79 N14       29.95R WCI  30
ODELL 4ENE       N/A     36  31  81 N16       29.96R WCI  26
PADUCAH 10SW     N/A     39  34  83 NE12      29.90F WCI  31
POST 1NE         N/A     47  46  95 NE12      29.85S
RRING SPRGS 3N   N/A     37  36  96 N15       29.91R WCI  28
SEYMOUR 3NW      N/A     41  40  94 N16       29.91S
SPUR 1W          N/A     40  38  93 NE13      29.88R WCI  33
WEINERT 2NNE     N/A     42  40  95 NE14      29.87F
WHITE RVR 6NE    N/A     40  39  95 NE16      29.83F WCI  32
$$

TXZ052-054-060>062-072-078-127-140-154-169-041300-
TEXAS TECH WEST TEXAS MESONET/PERMIAN BASIN/
CONCHO VALLEY/BIG COUNTRY/EDWARDS PLATEAU

CITY           SKY/WX    TMP DP  RH WIND       PRES   REMARKS
COYANOSA 2N      N/A     43  42  96 S5        29.84R
JUNCTION 1SSW    N/A     52  51  99 CALM      29.81F
MERTZON 3NNE     N/A     51  49  91 SW7       29.84R
SAN ANGELO 7NW   N/A     51  49  93 W2        29.82R
STRLNG CT 4WSW   N/A     51  50  97 SE3       29.83S
ST LAWRNCE 5SW   N/A     49  49  99 SW3       29.82R
SWEETWATR 11SW   N/A     53  52  98 CALM      29.84S
WALL 1E          N/A     51  49  91 SE8       29.80F
$$

TXZ055-058-074-075-080-082-041300-
TEXAS TECH WEST TEXAS MESONET/FAR WEST/SOUTHWEST MOUNTAINS/TRANS PECOS

CITY           SKY/WX    TMP DP  RH WIND       PRES   REMARKS
PRSMN GAP BBNP   N/A     53  49  87 N7        29.81S
$$



USA.gov is the U.S. government's official web portal to all federal, state and local government web resources and services.